CW4086 Weather Reports


time (UTC)temp
C
wind
direction
speed
KPH
gust
KPH
rain 1hr
cm
rain 24hr
cm
rain mn
cm
humidity
%
barometer
mb
20260504035604 12 191 0.0 1.6 0.00 0.03 0.03 68 1014.9
20260504034604 13 178 1.6 3.2 0.00 0.03 0.03 68 1015.0
20260504034104 13 309 1.6 3.2 0.00 0.03 0.03 68 1014.8
20260504033604 13 300 0.0 3.2 0.00 0.03 0.03 68 1014.6
20260504033104 13 336 0.0 9.7 0.00 0.03 0.03 68 1014.5
20260504032604 13 329 1.6 9.7 0.00 0.03 0.03 67 1014.6
20260504032104 13 1 1.6 9.7 0.00 0.03 0.03 67 1014.6
20260504031105 13 311 1.6 3.2 0.00 0.03 0.03 67 1014.2
20260504030104 13 240 1.6 4.8 0.00 0.03 0.03 66 1013.9
20260504025604 13 324 1.6 8.0 0.00 0.03 0.03 66 1013.9
20260504024103 13 310 1.6 9.7 0.00 0.03 0.03 66 1013.8
20260504023104 13 3 3.2 12.9 0.00 0.03 0.03 65 1013.5
20260504022604 14 351 3.2 11.3 0.00 0.03 0.03 65 1013.3
20260504022105 14 0 3.2 11.3 0.00 0.03 0.03 64 1013.2
20260504020607 15 339 1.6 14.5 0.00 0.03 0.03 63 1012.7
20260504020104 15 321 4.8 14.5 0.00 0.03 0.03 62 1012.6
20260504015605 16 342 3.2 14.5 0.00 0.03 0.03 61 1012.5
20260504015104 16 355 3.2 19.3 0.00 0.03 0.03 61 1012.3
20260504014604 16 332 4.8 19.3 0.00 0.03 0.03 60 1012.5
20260504014104 16 356 3.2 19.3 0.00 0.03 0.03 60 1012.5
20260504013604 16 0 3.2 19.3 0.00 0.03 0.03 59 1012.2
20260504013104 16 339 4.8 19.3 0.00 0.03 0.03 58 1012.4
20260504012604 17 298 6.4 14.5 0.00 0.03 0.03 58 1012.4
20260504012104 17 295 8.0 16.1 0.00 0.03 0.03 57 1012.4
20260504011604 17 318 4.8 16.1 0.00 0.03 0.03 57 1012.3
20260504011104 17 290 8.0 16.1 0.00 0.03 0.03 56 1012.2
20260504010104 18 357 8.0 14.5 0.00 0.03 0.03 54 1012.0
20260504005603 18 343 9.7 16.1 0.00 0.03 0.03 54 1012.0
20260504005105 18 309 9.7 19.3 0.00 0.03 0.03 54 1012.0
20260504004604 18 280 11.3 19.3 0.00 0.03 0.03 53 1012.0
20260504004104 19 276 9.7 19.3 0.00 0.03 0.03 52 1011.9
20260504003604 19 296 11.3 19.3 0.00 0.03 0.03 55 1011.9
20260504002604 20 277 9.7 16.1 0.00 0.03 0.03 53 1011.5
20260504002104 20 263 8.0 12.9 0.00 0.03 0.03 54 1011.3
20260504001606 18 282 1.6 4.8 0.00 0.03 0.03 60 1011.4
20260504000607 18 281 1.6 4.8 0.00 0.03 0.03 61 1011.5
20260504000104 18 283 3.2 4.8 0.00 0.03 0.03 61 1011.4
20260503235604 18 180 3.2 4.8 0.00 0.03 0.03 61 1011.3
20260503234604 18 76 3.2 8.0 0.00 0.03 0.03 62 1011.7
20260503234104 18 51 1.6 4.8 0.00 0.03 0.03 65 1011.8
20260503233604 17 53 0.0 4.8 0.00 0.03 0.03 65 1011.7
20260503233103 17 52 0.0 8.0 0.00 0.03 0.03 67 1011.7
20260503232604 17 74 1.6 8.0 0.00 0.03 0.03 66 1011.8
20260503232104 17 68 1.6 8.0 0.00 0.03 0.03 67 1012.0
20260503231604 17 16 4.8 11.3 0.00 0.03 0.03 66 1012.2
20260503231104 17 56 1.6 11.3 0.00 0.03 0.03 66 1012.2
20260503230104 17 80 3.2 8.0 0.00 0.03 0.03 64 1012.1
20260503225604 17 121 1.6 4.8 0.00 0.03 0.03 64 1012.2
20260503225104 17 121 1.6 4.8 0.00 0.03 0.03 66 1012.2
20260503224604 17 136 1.6 4.8 0.00 0.03 0.03 66 1012.2
20260503224104 17 140 0.0 3.2 0.00 0.03 0.03 67 1012.3
20260503223604 17 140 0.0 3.2 0.00 0.03 0.03 69 1012.5
20260503223104 17 136 1.6 3.2 0.00 0.03 0.03 70 1012.6
20260503222604 16 150 0.0 4.8 0.00 0.03 0.03 72 1012.6
20260503222104 16 149 1.6 4.8 0.00 0.03 0.03 72 1012.7
20260503221606 16 282 0.0 4.8 0.00 0.03 0.03 73 1012.7
20260503221104 15 271 3.2 8.0 0.00 0.03 0.03 73 1012.8
20260503220605 15 269 3.2 11.3 0.00 0.03 0.03 74 1012.8
20260503220104 15 293 4.8 11.3 0.00 0.03 0.03 74 1012.7
20260503215604 15 270 4.8 11.3 0.00 0.03 0.03 75 1012.8
20260503214605 15 294 4.8 11.3 0.00 0.03 0.03 75 1013.0
20260503214104 15 263 4.8 9.7 0.00 0.03 0.03 76 1012.9
20260503213104 15 253 8.0 9.7 0.00 0.03 0.03 76 1013.0
20260503212604 15 254 3.2 4.8 0.00 0.03 0.03 76 1013.0
20260503212104 15 237 3.2 11.3 0.00 0.03 0.03 76 1013.0
20260503211604 15 355 4.8 11.3 0.00 0.03 0.03 77 1013.0
20260503211104 15 236 3.2 8.0 0.00 0.03 0.03 78 1013.1
20260503210604 15 257 1.6 8.0 0.00 0.03 0.03 78 1013.1
20260503210105 15 285 3.2 8.0 0.00 0.03 0.03 78 1013.0
20260503205604 15 260 3.2 12.9 0.00 0.03 0.03 78 1013.0
20260503205104 15 262 4.8 12.9 0.00 0.03 0.03 78 1013.0
20260503204604 15 319 4.8 12.9 0.00 0.03 0.03 79 1013.0
20260503204105 15 301 3.2 9.7 0.00 0.03 0.03 79 1013.0
20260503203604 15 236 3.2 11.3 0.00 0.03 0.03 78 1013.0
20260503203104 15 281 4.8 12.9 0.00 0.03 0.03 79 1013.0
20260503202104 15 269 4.8 14.5 0.00 0.03 0.03 79 1013.0
20260503201606 15 275 4.8 9.7 0.00 0.03 0.03 80 1013.0
20260503201104 15 294 3.2 8.0 0.00 0.03 0.03 80 1013.0
20260503200607 15 278 3.2 11.3 0.00 0.03 0.03 80 1013.0
20260503200105 15 285 3.2 11.3 0.00 0.03 0.03 80 1013.0
20260503195604 14 272 4.8 9.7 0.00 0.03 0.03 81 1013.1
20260503194604 14 282 4.8 11.3 0.00 0.03 0.03 81 1013.4
20260503193604 14 277 4.8 11.3 0.00 0.03 0.03 82 1013.5
20260503193105 14 286 3.2 11.3 0.00 0.03 0.03 82 1013.5
20260503192604 14 299 6.4 11.3 0.00 0.03 0.03 82 1013.5
20260503191604 14 323 1.6 9.7 0.00 0.03 0.03 84 1013.5
20260503191104 14 299 4.8 11.3 0.00 0.03 0.03 83 1013.6
20260503190604 14 264 4.8 11.3 0.00 0.03 0.03 83 1013.5
20260503190104 14 280 4.8 11.3 0.00 0.03 0.03 84 1013.5
20260503185604 14 274 3.2 9.7 0.00 0.03 0.03 85 1013.5
20260503185103 14 271 3.2 9.7 0.00 0.03 0.03 84 1013.5
20260503184604 14 279 3.2 9.7 0.00 0.03 0.03 85 1013.5
20260503184104 13 281 4.8 9.7 0.00 0.03 0.03 86 1013.5
20260503183104 13 308 3.2 11.3 0.00 0.03 0.03 87 1013.5
20260503182605 13 299 4.8 11.3 0.00 0.03 0.03 87 1013.4
20260503182104 13 278 4.8 11.3 0.00 0.03 0.03 88 1013.4
20260503181605 13 275 4.8 12.9 0.00 0.03 0.03 88 1013.4
20260503181104 13 284 6.4 12.9 0.00 0.03 0.03 89 1013.4
20260503175104 14 296 9.7 16.1 0.00 0.03 0.03 92 1013.2
20260503173605 14 279 9.7 14.5 0.00 0.03 0.03 94 1013.2
20260503172604 13 278 6.4 12.9 0.00 0.03 0.03 96 1013.2
20260503172104 13 280 8.0 12.9 0.00 0.03 0.03 99 1013.2
20260503171604 13 287 8.0 12.9 0.00 0.03 0.03 100 1013.2
20260503171104 13 277 6.4 12.9 0.00 0.03 0.03 100 1013.2
20260503170604 13 293 4.8 9.7 0.00 0.03 0.03 100 1013.1
20260503170107 13 309 3.2 8.0 0.00 0.03 0.03 100 1013.0
20260503160104 13 289 3.2 8.0 0.00 0.03 0.03 100 1013.1
20260503150606 13 287 3.2 4.8 0.00 0.03 0.03 100 1012.7
20260503140105 13 279 1.6 4.8 0.00 0.03 0.03 96 1012.6
20260503131104 13 322 3.2 4.8 0.03 0.03 0.03 95 1011.7
20260503130104 13 323 0.0 3.2 0.03 0.03 0.03 95 1011.5
20260503110607 13 324 0.0 4.8 0.00 0.00 0.00 92 1011.5
20260503110103 13 323 1.6 4.8 0.00 0.00 0.00 92 1011.5
20260503100104 13 330 1.6 4.8 0.00 0.00 0.00 89 1011.5
20260503090104 14 314 1.6 8.0 0.00 0.00 0.00 85 1012.1
20260503081104 16 338 0.0 3.2 0.00 0.00 0.00 75 1012.4
20260503080104 16 332 0.0 3.2 0.00 0.00 0.00 74 1012.6
20260503072604 16 319 0.0 1.6 0.00 0.00 0.00 69 1012.5
20260503072105 16 319 0.0 1.6 0.00 0.00 0.00 68 1012.4
20260503071604 17 319 0.0 1.6 0.00 0.00 0.00 67 1012.4
20260503070606 17 319 0.0 1.6 0.00 0.00 0.00 66 1012.5
20260503070104 17 319 0.0 1.6 0.00 0.00 0.00 66 1012.4
20260503055104 18 333 0.0 1.6 0.00 0.00 0.00 62 1012.5
20260503054104 18 335 0.0 1.6 0.00 0.00 0.00 59 1012.4
20260503053603 18 335 0.0 0.0 0.00 0.00 0.00 55 1012.3
20260503053104 18 335 0.0 0.0 0.00 0.00 0.00 52 1012.2
20260503052604 18 335 0.0 0.0 0.00 0.00 0.00 51 1012.2
20260503052104 18 335 0.0 1.6 0.00 0.00 0.00 52 1012.3
20260503051605 18 335 0.0 3.2 0.00 0.00 0.00 46 1012.3
20260503051104 19 335 0.0 4.8 0.00 0.00 0.00 49 1012.2
20260503050604 20 340 1.6 4.8 0.00 0.00 0.00 47 1012.2
20260503050105 20 342 3.2 4.8 0.00 0.00 0.00 49 1012.1
20260503045605 20 350 3.2 4.8 0.00 0.00 0.00 50 1012.1
20260503044604 20 355 0.0 4.8 0.00 0.00 0.00 36 1012.0
20260503044103 20 355 0.0 3.2 0.00 0.00 0.00 32 1011.8
20260503043604 20 352 0.0 3.2 0.00 0.00 0.00 35 1011.7
20260503043104 20 349 0.0 1.6 0.00 0.00 0.00 39 1011.7
20260503042604 20 349 0.0 0.0 0.00 0.00 0.00 41 1011.6
20260503042103 21 349 0.0 1.6 0.00 0.00 0.00 47 1011.4
20260503041606 21 349 0.0 1.6 0.00 0.00 0.00 45 1011.5
20260503041104 21 350 0.0 0.0 0.00 0.00 0.00 49 1011.4
20260503040606 21 350 0.0 0.0 0.00 0.00 0.00 49 1011.3
20260503040104 21 350 0.0 0.0 0.00 0.00 0.00 48 1011.3